Flag for U.S.A. Weather past 2 weeks in Irving, Texas, U.S.A.

Now
29 °F

Light freezing rain. Ice fog.


Feels Like: 15 °F
Forecast: 28 / 39 °F
Wind: 24 mph from North

Location: Dallas / Fort Worth International Airport

Current Time: Mar 4, 2015 at 10:57:10 PM

Latest Report: Mar 4, 2015 at 9:53 PM


Visibility: 6 mi

Pressure: 30.29 "Hg

Humidity: 89%

Dew point: 26 °F

Location of IrvingLocation

Historic Weather in Irving — Graph

°F

Irving temperature yesterday

Maximum temperature yesterday: 52 °F (at 4:53 PM)
Minimum temperature yesterday: 40 °F (at 12:53 AM)
Average temperature yesterday: 47 °F

Past Weeks' High & Low Weather Summary

 TemperatureHumidityPressure
High69 °F (Feb 20, 2:53 PM)100% (Mar 2, 8:53 PM)30.58 "Hg (Mar 2, 8:53 PM)
Low24 °F (Feb 27, 10:53 AM)39% (Feb 18, 3:53 PM)29.64 "Hg (Feb 21, 2:53 AM)
Average39 °F79%30.18 "Hg
* Reported Feb 17 8:53 PM — Mar 4 8:53 PM, Irving, Weather by CustomWeather, © 2015

Note: Actual official high and low records may vary slightly from our data, if they occured in-between our weather recording intervals... More about our weather records

Advertising

Irving weather history for previous 24 hours

 ConditionsComfort  
Time TempWeatherWind HumidityBarometerVisibility
8:53 PM
Wed, Mar 4
30 °FOvercast.22 mph85%30.20 "Hg10 mi
7:53 PM30 °FLight freezing rain. Ice fog.25 mph92%30.15 "Hg4 mi
6:53 PM31 °FLight freezing rain. Mostly cloudy.24 mph89%30.14 "Hg10 mi
5:53 PM31 °FLight freezing rain. Ice fog.28 mph89%30.09 "Hg6 mi
4:59 PM32 °FSleet. Ice fog.23 mph92%30.05 "Hg2 mi
4:53 PM32 °FSleet. Ice fog.23 mph92%30.06 "Hg2 mi
4:50 PM32 °FSleet. Ice fog.21 mph93%30.08 "Hg2 mi
3:53 PM34 °FOvercast.22 mph88%30.01 "Hg10 mi
2:53 PM34 °FLight rain. Fog.25 mph92%30.00 "Hg3 mi
1:53 PM36 °FLight rain. Mostly cloudy.25 mph89%29.99 "Hg9 mi
12:53 PM39 °FThunderstorms. Fog.26 mph89%29.98 "Hg6 mi
11:53 AM41 °FLight rain. Fog.24 mph93%29.99 "Hg5 mi
10:53 AM44 °FLight rain. Fog.16 mph93%29.94 "Hg3 mi
9:53 AM46 °FLight rain. Fog.18 mph93%29.94 "Hg2 mi
9:03 AM48 °FRain. Fog.14 mph96%29.94 "Hg2 mi
8:53 AM48 °FRain. Fog.13 mph96%29.93 "Hg5 mi
7:53 AM48 °FLight rain. Mostly cloudy.15 mph96%29.90 "Hg7 mi
7:01 AM50 °FLight rain. More clouds than sun.10 mph96%29.90 "Hg8 mi
5:59 AM50 °FDrizzle. Fog.10 mph100%29.89 "Hg0 mi
4:53 AM50 °FDrizzle. Fog.7 mph100%29.86 "Hg0 mi
3:53 AM51 °FDrizzle. Fog.6 mph100%29.84 "Hg0 mi
2:53 AM51 °FDrizzle. Fog.3 mph100%29.85 "Hg0 mi
2:00 AM51 °FFog.5 mph100%29.84 "Hg2 mi
12:53 AM51 °FFog.No wind100%29.84 "Hg4 mi
11:53 PM
Tue, Mar 3
51 °FFog.No wind100%29.86 "Hg6 mi
10:53 PM52 °FFog.No wind97%29.86 "Hg5 mi
Weather by CustomWeather, © 2015

See weather overviewHow to use our weather pages